STARLINK-35037

Last updated on Tue Sep 16 2025 00:02:08 GMT+0000 (Coordinated Universal Time)

1 65483U 25195AB 25258.02177948 -.00171029 00000+0 -10667-2 0 9991 2 65483 53.1554 0.1603 0004043 38.2206 321.9101 15.76615033 2997
UTC large
Height (km)
Speed (km/s)
/
Latitude / Longitude
Inclination (degrees)
Orbital Period (minutes)
Azimuth
Elevation
Range (km)
Doppler Factor

Next 0 passes for location: London (51.5072 / 0.1276)

Sorry there are no passes over London.